Weather History for Worcester, MA

Change the Weather History Date:

Tuesday, February 12, 2013

  Actual Average Record
Temperature  
Mean Temperature 36 °F 26 °F  
Max Temperature 40 °F 34 °F 56 °F (1999)
Min Temperature 32 °F 19 °F -13 °F (1914)
Degree Days  
Heating Degree Days 29 39  
Month to date heating degree days 495 474  
Since 1 July heating degree days 3886 4247  
Cooling Degree Days 0 0  
Month to date cooling degree days 0 0  
Year to date cooling degree days 0 0  
Moisture  
Dew Point 25 °F    
Average Humidity 77    
Maximum Humidity 100    
Minimum Humidity 54    
Precipitation  
Precipitation 0.00 in 0.12 in 1.65 in (1985)
Month to date precipitation 2.70 1.36  
Year to date precipitation 4.65 4.85  
Sea Level Pressure  
Sea Level Pressure 29.74 in    
Wind  
Wind Speed 16 mph (West)    
Max Wind Speed 29 mph    
Max Gust Speed 42 mph    
Visibility 9 miles    
Events      
T = Trace of Precipitation, MM = Missing Value Source: NWS Daily Summary

Daily Weather History Graph

Daily Weather History Graph

Search for Another Location

Airport:

Trip Planner

Search our weather history database for the weather conditions in past years. The results will help you decide how hot, cold, wet, or windy it might be!

Date:

Astronomy

Feb. 12, 2013 Rise Set
Actual Time 6:47 AM EST 5:16 PM EST
Civil Twilight 6:18 AM EST 5:45 PM EST
Nautical Twilight 5:45 AM EST 6:18 PM EST
Astronomical Twilight 5:13 AM EST 6:50 PM EST
Moon 7:39 AM EST (2/12) 8:18 PM EST (2/12)
Length of Visible Light 11h 26m
Length of Day
10h 28m
Waxing Crescent, 7% of the Moon is Illuminated
Feb 12
Waxing Crescent
Feb 17
First Quarter
Feb 25
Full
Mar 4
Last Quarter
Mar 11
New

Hourly Weather History & Observations

Time (EST) Temp. Windchill Dew Point Humidity Pressure Visibility Wind Dir Wind Speed Gust Speed Precip Events Conditions
12:04 AM 37.0 °F 26.7 °F 35.1 °F 93% 29.60 in 10.0 mi WNW 19.6 mph 27.6 mph N/A   Overcast
12:54 AM 36.0 °F 27.5 °F 33.1 °F 89% 29.63 in 10.0 mi West 12.7 mph - N/A   Overcast
1:54 AM 35.1 °F 25.9 °F 28.9 °F 78% 29.65 in 10.0 mi WNW 13.8 mph - N/A   Clear
2:54 AM 34.0 °F 22.7 °F 26.1 °F 73% 29.64 in 10.0 mi West 19.6 mph 32.2 mph N/A   Clear
3:54 AM 34.0 °F 25.5 °F 27.0 °F 75% 29.65 in 10.0 mi West 11.5 mph - N/A   Mostly Cloudy
4:54 AM 34.0 °F 23.4 °F 27.0 °F 75% 29.64 in 10.0 mi West 17.3 mph - N/A   Overcast
5:54 AM 34.0 °F 21.8 °F 25.0 °F 70% 29.65 in 10.0 mi West 23.0 mph 34.5 mph N/A   Partly Cloudy
6:54 AM 35.1 °F 26.9 °F 26.1 °F 70% 29.67 in 10.0 mi West 11.5 mph - N/A   Overcast
7:54 AM 35.1 °F 23.8 °F 26.1 °F 70% 29.66 in 10.0 mi West 20.7 mph 27.6 mph N/A   Scattered Clouds
8:54 AM 37.0 °F 26.4 °F 25.0 °F 62% 29.68 in 10.0 mi West 20.7 mph 29.9 mph N/A   Clear
9:54 AM 37.9 °F 27.3 °F 24.1 °F 57% 29.69 in 10.0 mi West 21.9 mph 35.7 mph N/A   Clear
10:54 AM 37.9 °F 27.9 °F 24.1 °F 57% 29.71 in 10.0 mi West 19.6 mph 29.9 mph N/A   Overcast
11:54 AM 39.0 °F 27.8 °F 24.1 °F 55% 29.71 in 10.0 mi West 26.5 mph 34.5 mph N/A   Mostly Cloudy
12:54 PM 37.9 °F 28.2 °F 24.1 °F 57% 29.73 in 10.0 mi West 18.4 mph 36.8 mph N/A   Overcast
1:54 PM 37.9 °F 29.6 °F 25.0 °F 60% 29.73 in 10.0 mi WNW 13.8 mph 32.2 mph N/A   Overcast
2:54 PM 37.0 °F 27.7 °F 25.0 °F 62% 29.77 in 10.0 mi West 16.1 mph 24.2 mph N/A   Overcast
3:08 PM 37.0 °F 26.2 °F 25.0 °F 62% 29.73 in 1.0 mi West 21.9 mph 33.4 mph N/A   Haze
3:20 PM 37.0 °F 26.4 °F 25.0 °F 62% 29.73 in 10.0 mi West 20.7 mph 33.4 mph N/A   Overcast
3:46 PM 37.0 °F 28.5 °F 25.0 °F 62% 29.73 in 0.8 mi West 13.8 mph 26.5 mph N/A   Haze
3:52 PM 37.4 °F 27.5 °F 24.8 °F 60% 29.73 in 5.0 mi West 18.4 mph 25.3 mph N/A   Haze
3:54 PM 37.0 °F 26.7 °F 25.0 °F 62% 29.76 in 10.0 mi West 19.6 mph 26.5 mph N/A   Overcast
4:54 PM 36.0 °F 27.1 °F 25.0 °F 64% 29.76 in 10.0 mi West 13.8 mph - N/A   Overcast
5:38 PM 35.1 °F 27.9 °F 25.0 °F 67% 29.74 in 10.0 mi West 9.2 mph 18.4 mph N/A   Overcast
5:54 PM 35.1 °F 28.6 °F 25.0 °F 67% 29.77 in 10.0 mi West 8.1 mph - N/A   Overcast
6:43 PM 34.0 °F 25.0 °F 24.1 °F 67% 29.77 in 10.0 mi West 12.7 mph 20.7 mph N/A   Overcast
6:54 PM 34.0 °F 24.2 °F 24.1 °F 67% 29.82 in 10.0 mi West 15.0 mph - N/A   Overcast
7:37 PM 34.0 °F 24.2 °F 24.1 °F 67% 29.82 in 10.0 mi West 15.0 mph 23.0 mph N/A   Overcast
7:54 PM 33.1 °F 23.0 °F 24.1 °F 70% 29.88 in 10.0 mi West 15.0 mph 25.3 mph N/A   Mostly Cloudy
8:39 PM 33.1 °F 22.2 °F 23.0 °F 66% 29.85 in 10.0 mi West 17.3 mph 24.2 mph N/A   Overcast
8:54 PM 33.1 °F 23.4 °F 21.9 °F 64% 29.87 in 10.0 mi West 13.8 mph - N/A   Mostly Cloudy
9:54 PM 32.0 °F 24.2 °F 21.9 °F 66% 29.85 in 10.0 mi West 9.2 mph - N/A   Overcast
10:54 PM 33.1 °F 24.9 °F 21.9 °F 64% 29.83 in 10.0 mi West 10.4 mph - N/A   Overcast
11:54 PM 32.0 °F 23.6 °F 21.0 °F 64% 29.84 in 10.0 mi West 10.4 mph - N/A   Scattered Clouds